470  
ASUS44 KHUN 260410  
RWRHUN  
 
WEATHER ROUNDUP FOR THE TENNESSEE VALLEY  
NATIONAL WEATHER SERVICE HUNTSVILLE AL  
1100 PM CDT MON OCT 25 2021  
 
ALZ001>004-260500-  
NORTHWEST ALABAMA  
 
CITY SKY/WX TMP DP RH WIND PRES REMARKS
 
SHOALS AIRPORT CLOUDY 58 45 62 N9 30.04S  

 
 
ALZ005>007-016-260500-  
NORTH CENTRAL ALABAMA  
 
CITY SKY/WX TMP DP RH WIND PRES REMARKS
 
CULLMAN AG STN N/A 55 N/A N/A N9 N/A  
DECATUR AP CLOUDY 56 45 66 N13 30.03S  
HUNTSVILLE AP CLOUDY 56 46 69 NW10 30.02S  
MERIDIANVILLE CLOUDY 56 45 68 NW16G23 30.02R  
VINEMONT AP CLOUDY 55 46 71 VRB7G14 30.03R  

 
 
ALZ008>010-260500-  
NORTHEAST ALABAMA  
 
CITY SKY/WX TMP DP RH WIND PRES REMARKS
 
ALBERTVILLE CLOUDY 54 45 71 N14 30.00R  
FORT PAYNE CLOUDY 55 45 69 NW8 29.97S  

 
 
TNZ076-096-097-260500-  
SOUTHEASTERN MIDDLE TENNESSEE  
 
CITY SKY/WX TMP DP RH WIND PRES REMARKS
 
TULLAHOMA CLOUDY 52 45 76 NW10 30.00S  
WINCHESTER CLOUDY 54 43 66 N9G18 30.00R  

 
   
..SURROUNDING SITES
 
 
 
CITY SKY/WX TMP DP RH WIND PRES REMARKS
 
ATLANTA PTCLDY 65 57 75 NW18G26 29.87R  
ANNISTON CLOUDY 61 51 70 VRB6 29.95R  
BIRMINGHAM PTCLDY 59 51 75 N9 30.00R  
CHATTANOOGA MOCLDY 57 46 66 NW16G26 29.97S  
CORINTH CLEAR 52 46 82 NW6 30.06S  
DALTON CLOUDY 59 48 67 NW13G20 29.96R  
GADSDEN N/A 58 49 72 NW9 29.99R  
GOLDEN TRNGL CLEAR 59 52 77 N10 30.03R  
HALEYVILLE CLOUDY 53 47 79 N7 30.05S  
JACKSON TN CLOUDY 55 45 68 N12 30.08S  
MEMPHIS CLEAR 56 46 69 NE13 30.07R  
NASHVILLE CLOUDY 55 44 66 NW8 30.02S  
ROME MOCLDY 60 48 64 N13G23 29.93R  
SAVANNAH CLOUDY 55 46 71 N9 30.04F  
TUPELO CLEAR 55 49 80 N8 30.05S  
TUSCALOOSA CLEAR 61 55 81 N5 30.01R  

 
 
 
 
CLICK HERE TO GO TO PREVIOUS BULLETINS.

The Nexlab AL Page
The Nexlab TN Page Main Text Page